Location: Perryvale
(54.4667°N, 113.3833°W)
Time: 23:25:04
(UTC+00:00)

SR - Pass Details

Date: 22 May 2024
Orbit: 580 x 858 km, 66.7° (Epoch: 13 June)

Event Time Altitude Azimuth Distance (km) Brightness Sun altitude
Rises 07:27:16 0° 314° (NW) 2,980 ? -15.0°
Reaches altitude 10° 07:29:59 10° 327° (NNW) 2,022 ? -15.0°
Maximum altitude 07:33:43 25° 23° (NNE) 1,251 ? -15.0°
Drops below altitude 10° 07:37:18 10° 80° (E) 1,928 ? -15.0°
Sets 07:39:50 0° 94° (E) 2,810 ? -15.0°
